H1 CPF 2 NER 2023 6 20 9 171 01 glonass127 H2 1106403 9127 37869 2023 6 20 0 0 0 2023 6 23 23 45 0 900 1 1 0 0 0 1 H9 10 0 60115 0.00000 0 2648397.339 -10659380.129 23083603.194 10 0 60115 900.00000 0 5306798.789 -9683120.627 23053346.625 10 0 60115 1800.00000 0 8000246.480 -8913147.065 22578185.527 10 0 60115 2700.00000 0 10660341.729 -8361071.744 21667124.343 10 0 60115 3600.00000 0 13218403.564 -8026212.154 20337540.826 10 0 60115 4500.00000 0 15608093.355 -7895735.964 18614873.824 10 0 60115 5400.00000 0 17767958.301 -7945325.894 16532160.019 10 0 60115 6300.00000 0 19643790.231 -8140338.376 14129426.066 10 0 60115 7200.00000 0 21190702.750 -8437409.557 11452945.105 10 0 60115 8100.00000 0 22374840.373 -8786443.448 8554369.259 10 0 60115 9000.00000 0 23174647.505 -9132900.637 5489752.382 10 0 60115 9900.00000 0 23581642.538 -9420292.574 2318479.958 10 0 60115 10800.00000 0 23600662.450 -9592776.869 -897874.481 10 0 60115 11700.00000 0 23249565.133 -9597743.643 -4096744.924 10 0 60115 12600.00000 0 22558399.560 -9388282.264 -7215796.983 10 0 60115 13500.00000 0 21568076.638 -8925421.812 -10194155.899 10 0 60115 14400.00000 0 20328595.315 -8180047.470 -12973613.029 10 0 60115 15300.00000 0 18896898.067 -7134408.198 -15499785.250 10 0 60115 16200.00000 0 17334446.384 -5783148.249 -17723202.462 10 0 60115 17100.00000 0 15704619.476 -4133815.342 -19600299.571 10 0 60115 18000.00000 0 14070047.483 -2206820.927 -21094291.332 10 0 60115 18900.00000 0 12489993.617 -34851.734 -22175911.002 10 0 60115 19800.00000 0 11017897.593 2338244.280 -22823996.802 10 0 60115 20700.00000 0 9699185.745 4859051.539 -23025913.628 10 0 60115 21600.00000 0 8569441.471 7466593.049 -22777801.237 10 0 60115 22500.00000 0 7653013.735 10094664.393 -22084644.018 10 0 60115 23400.00000 0 6962122.123 12674396.497 -20960161.499 10 0 60115 24300.00000 0 6496495.151 15136938.510 -19426522.651 10 0 60115 25200.00000 0 6243555.240 17416147.181 -17513890.912 10 0 60115 26100.00000 0 6179140.028 19451169.186 -15259810.459 10 0 60115 27000.00000 0 6268726.590 21188807.915 -12708447.591 10 0 60115 27900.00000 0 6469103.647 22585575.945 -9909703.955 10 0 60115 28800.00000 0 6730417.943 23609348.316 -6918220.954 10 0 60115 29700.00000 0 6998505.426 24240549.245 -3792296.569 10 0 60115 30600.00000 0 7217406.392 24472825.102 -592737.314 10 0 60115 31500.00000 0 7331956.669 24313178.479 2618331.060 10 0 60115 32400.00000 0 7290344.581 23781560.996 5778670.222 10 0 60115 33300.00000 0 7046525.755 22909945.121 8827129.660 10 0 60115 34200.00000 0 6562394.651 21740916.715 11704817.879 10 0 60115 35100.00000 0 5809622.661 20325849.451 14356222.767 10 0 60115 36000.00000 0 4771087.050 18722738.806 16730261.037 10 0 60115 36900.00000 0 3441832.378 16993786.591 18781238.470 10 0 60115 37800.00000 0 1829525.439 15202836.246 20469704.832 10 0 60115 38700.00000 0 -45614.487 13412764.409 21763189.482 10 0 60115 39600.00000 0 -2151407.128 11682935.268 22636805.880 10 0 60115 40500.00000 0 -4444800.623 10066821.043 23073715.517 10 0 60115 41400.00000 0 -6873415.253 8609884.858 23065443.949 10 0 60115 42300.00000 0 -9377479.825 7347811.517 22612043.833 10 0 60115 43200.00000 0 -11892083.427 6305157.697 21722102.033 10 0 60115 44100.00000 0 -14349652.567 5494476.365 20412590.070 10 0 60115 45000.00000 0 -16682554.273 4915951.371 18708559.440 10 0 60115 45900.00000 0 -18825720.176 4557557.763 16642685.673 10 0 60115 46800.00000 0 -20719184.995 4395742.248 14254667.410 10 0 60115 47700.00000 0 -22310435.352 4396596.992 11590489.359 10 0 60115 48600.00000 0 -23556471.592 4517479.514 8701560.637 10 0 60115 49500.00000 0 -24425496.100 4709012.601 5643742.564 10 0 60115 50400.00000 0 -24898156.042 4917381.675 2476282.747 10 0 60115 51300.00000 0 -24968286.346 5086833.744 -739325.371 10 0 60115 52200.00000 0 -24643119.099 5162272.568 -3940536.036 10 0 60115 53100.00000 0 -23942947.812 5091839.504 -7064974.473 10 0 60115 54000.00000 0 -22900258.113 4829369.085 -10051665.309 10 0 60115 54900.00000 0 -21558359.422 4336612.776 -12842240.736 10 0 60115 55800.00000 0 -19969573.898 3585133.552 -15382102.857 10 0 60115 56700.00000 0 -18193058.484 2557787.534 -17621515.284 10 0 60115 57600.00000 0 -16292352.123 1249726.438 -19516600.363 10 0 60115 58500.00000 0 -14332752.563 -331124.866 -21030220.250 10 0 60115 59400.00000 0 -12378634.811 -2164138.654 -22132722.666 10 0 60115 60300.00000 0 -10490825.945 -4216601.607 -22802535.184 10 0 60115 61200.00000 0 -8724148.594 -6444854.278 -23026595.294 10 0 60115 62100.00000 0 -7125237.913 -8795905.252 -22800607.295 10 0 60115 63000.00000 0 -5730724.756 -11209451.836 -22129120.924 10 0 60115 63900.00000 0 -4565861.645 -13620221.496 -21025430.656 10 0 60115 64800.00000 0 -3643648.574 -15960534.502 -19511298.565 10 0 60115 65700.00000 0 -2964493.856 -18162978.941 -17616507.477 10 0 60115 66600.00000 0 -2516421.882 -20163084.630 -15378254.765 10 0 60115 67500.00000 0 -2275816.016 -21901883.058 -12840400.500 10 0 60115 68400.00000 0 -2208661.895 -23328245.710 -10052586.570 10 0 60115 69300.00000 0 -2272235.134 -24400903.236 -7069245.954 10 0 60115 70200.00000 0 -2417158.818 -25090061.991 -3948523.350 10 0 60115 71100.00000 0 -2589740.971 -25378552.126 -751129.752 10 0 60115 72000.00000 0 -2734490.978 -25262461.577 2460845.383 10 0 60115 72900.00000 0 -2796707.208 -24751232.312 5625140.519 10 0 60115 73800.00000 0 -2725026.005 -23867217.766 8680523.317 10 0 60115 74700.00000 0 -2473824.736 -22644722.860 11567963.821 10 0 60115 75600.00000 0 -2005378.589 -21128569.111 14231757.825 10 0 60115 76500.00000 0 -1291681.754 -19372246.460 16620580.268 10 0 60115 77400.00000 0 -315858.146 -17435729.777 18688450.275 10 0 60115 78300.00000 0 926895.977 -15383050.894 20395591.614 10 0 60115 79200.00000 0 2428875.768 -13279726.138 21709174.477 10 0 60115 80100.00000 0 4169955.618 -11190144.515 22603926.697 10 0 60115 81000.00000 0 6118197.664 -9175022.533 23062604.796 10 0 60115 81900.00000 0 8230956.808 -7289028.560 23076317.455 10 0 60115 82800.00000 0 10456438.288 -5578672.556 22644696.167 10 0 60115 83700.00000 0 12735645.799 -4080546.292 21775910.064 10 0 60115 84600.00000 0 15004642.476 -2819985.215 20486524.057 10 0 60115 85500.00000 0 17197034.151 -1810206.458 18801201.705 10 0 60116 0.00000 0 19246574.763 -1051958.612 16752256.767 10 0 60116 900.00000 0 21089789.358 -533698.005 14379058.440 10 0 60116 1800.00000 0 22668504.676 -232286.299 11727301.840 10 0 60116 2700.00000 0 23932186.479 -114180.512 8848151.429 10 0 60116 3600.00000 0 24839983.112 -137068.468 5797274.025 10 0 60116 4500.00000 0 25362389.857 -251882.168 2633777.052 10 0 60116 5400.00000 0 25482462.120 -405105.610 -580928.731 10 0 60116 6300.00000 0 25196523.933 -541280.270 -3784320.665 10 0 60116 7200.00000 0 24514339.019 -605602.051 -6913986.562 10 0 60116 8100.00000 0 23458734.261 -546498.628 -9908853.446 10 0 60116 9000.00000 0 22064688.820 -318076.020 -12710397.291 10 0 60116 9900.00000 0 20377925.215 117672.056 -15263808.213 10 0 60116 10800.00000 0 18453060.489 788988.867 -17519086.127 10 0 60116 11700.00000 0 16351394.919 1712896.242 -19432043.174 10 0 60116 12600.00000 0 14138431.797 2894218.117 -20965191.013 10 0 60116 13500.00000 0 11881233.767 4325130.278 -22088493.681 10 0 60116 14400.00000 0 9645728.395 5985257.696 -22779969.673 10 0 60116 15300.00000 0 7494077.960 7842316.917 -23026130.348 10 0 60116 16200.00000 0 5482225.524 9853277.215 -22822245.485 10 0 60116 17100.00000 0 3657721.432 11965991.602 -22172430.724 10 0 60116 18000.00000 0 2057922.028 14121228.367 -21089555.630 10 0 60116 18900.00000 0 708635.847 16255016.540 -19594975.089 10 0 60116 19800.00000 0 -376727.073 18301205.310 -17718090.563 10 0 60116 20700.00000 0 -1197469.137 20194128.360 -15495751.420 10 0 60116 21600.00000 0 -1765372.044 21871260.061 -12971509.861 10 0 60116 22500.00000 0 -2103929.806 23275751.208 -10194745.940 10 0 60116 23400.00000 0 -2247083.927 24358737.666 -7219681.764 10 0 60116 24300.00000 0 -2237517.802 25081325.606 -4104305.942 10 0 60116 25200.00000 0 -2124585.724 25416171.300 -909230.883 10 0 60116 26100.00000 0 -1961966.760 25348591.108 2303493.523 10 0 60116 27000.00000 0 -1805144.650 24877157.564 5471585.914 10 0 60116 27900.00000 0 -1708821.312 24013759.261 8533735.530 10 0 60116 28800.00000 0 -1724373.377 22783124.704 11430777.292 10 0 60116 29700.00000 0 -1897458.440 21221832.448 14106818.106 10 0 60116 30600.00000 0 -2265870.619 19376850.705 16510294.151 10 0 60116 31500.00000 0 -2857733.986 17303668.390 18594940.673 10 0 60116 32400.00000 0 -3690107.985 15064095.669 20320657.941 10 0 60116 33300.00000 0 -4768061.755 12723824.694 21654259.174 10 0 60116 34200.00000 0 -6084255.038 10349850.276 22570088.418 10 0 60116 35100.00000 0 -7619042.875 8007855.202 23050498.679 10 0 60116 36000.00000 0 -9341100.221 5759665.818 23086182.762 10 0 60116 36900.00000 0 -11208541.921 3660880.446 22676351.513 10 0 60116 37800.00000 0 -13170493.641 1758766.114 21828756.301 10 0 60116 38700.00000 0 -15169051.296 90508.445 20559554.820 10 0 60116 39600.00000 0 -17141550.666 -1318114.317 18893021.494 10 0 60116 40500.00000 0 -19023056.018 -2453578.956 16861106.134 10 0 60116 41400.00000 0 -20748967.052 -3314951.363 14502846.906 10 0 60116 42300.00000 0 -22257637.784 -3913692.350 11863646.191 10 0 60116 43200.00000 0 -23492899.497 -4272941.993 8994420.601 10 0 60116 44100.00000 0 -24406382.658 -4426310.777 5950638.967 10 0 60116 45000.00000 0 -24959539.909 -4416226.543 2791264.853 10 0 60116 45900.00000 0 -25125283.592 -4291905.308 -422377.429 10 0 60116 46800.00000 0 -24889166.540 -4107030.537 -3627792.080 10 0 60116 47700.00000 0 -24250053.463 -3917238.670 -6762533.204 10 0 60116 48600.00000 0 -23220251.434 -3777517.863 -9765433.791 10 0 60116 49500.00000 0 -21825090.890 -3739631.590 -12577816.978 10 0 60116 50400.00000 0 -20101972.145 -3849678.503 -15144663.997 10 0 60116 51300.00000 0 -18098915.650 -4145894.808 -17415713.819 10 0 60116 52200.00000 0 -15872675.892 -4656795.441 -19346470.662 10 0 60116 53100.00000 0 -13486498.077 -5399735.997 -20899097.420 10 0 60116 54000.00000 0 -11007612.449 -6379959.233 -22043175.536 10 0 60116 54900.00000 0 -8504572.660 -7590169.009 -22756314.847 10 0 60116 55800.00000 0 -6044551.455 -9010651.420 -23024600.328 10 0 60116 56700.00000 0 -3690708.677 -10609939.075 -22842866.341 10 0 60116 57600.00000 0 -1499743.270 -12345990.743 -22214792.971 10 0 60116 58500.00000 0 480267.243 -14167836.112 -21152822.946 10 0 60116 59400.00000 0 2211649.169 -16017615.294 -19677901.651 10 0 60116 60300.00000 0 3668462.973 -17832925.755 -17819046.598 10 0 60116 61200.00000 0 4837327.390 -19549376.231 -15612756.358 10 0 60116 62100.00000 0 5717705.221 -21103238.644 -13102272.351 10 0 60116 63000.00000 0 6321642.076 -22434085.278 -10336709.848 10 0 60116 63900.00000 0 6672972.696 -23487299.568 -7370077.131 10 0 60116 64800.00000 0 6806032.180 -24216354.943 -4260203.850 10 0 60116 65700.00000 0 6763930.176 -24584766.587 -1067601.050 10 0 60116 66600.00000 0 6596464.150 -24567635.488 2145723.559 10 0 60116 67500.00000 0 6357762.431 -24152721.863 5317471.239 10 0 60116 68400.00000 0 6103758.297 -23341005.264 8386255.057 10 0 60116 69300.00000 0 5889602.493 -22146710.317 11292776.845 10 0 60116 70200.00000 0 5767123.207 -20596799.336 13980956.426 10 0 60116 71100.00000 0 5782439.595 -18729954.916 16398992.766 10 0 60116 72000.00000 0 5973827.748 -16595096.190 18500338.512 10 0 60116 72900.00000 0 6369926.946 -14249491.009 20244571.426 10 0 60116 73800.00000 0 6988359.584 -11756542.046 21598148.446 10 0 60116 74700.00000 0 7834821.069 -9183337.424 22535030.232 10 0 60116 75600.00000 0 8902676.767 -6598065.293 23037166.386 10 0 60116 76500.00000 0 10173082.688 -4067396.767 23094833.699 10 0 60116 77400.00000 0 11615625.593 -1653942.583 22706822.001 10 0 60116 78300.00000 0 13189457.460 586114.214 21880464.346 10 0 60116 79200.00000 0 14844879.407 2605114.260 20631510.501 10 0 60116 80100.00000 0 16525311.992 4365661.771 18983844.902 10 0 60116 81000.00000 0 18169572.912 5841937.542 16969052.636 10 0 60116 81900.00000 0 19714370.173 7020531.048 14625839.342 10 0 60116 82800.00000 0 21096909.201 7900756.638 11999313.550 10 0 60116 83700.00000 0 22257506.792 8494439.648 9140142.537 10 0 60116 84600.00000 0 23142103.366 8825179.858 6103595.435 10 0 60116 85500.00000 0 23704568.000 8927121.393 2948490.005 10 0 60117 0.00000 0 23908698.217 8843279.137 -263937.773 10 0 60117 900.00000 0 23729828.306 8623490.747 -3471221.913 10 0 60117 1800.00000 0 23155975.364 8322080.130 -6610885.020 10 0 60117 2700.00000 0 22188471.826 7995331.061 -9621668.605 10 0 60117 3600.00000 0 20842054.085 7698878.832 -12444745.504 10 0 60117 4500.00000 0 19144400.448 7485132.098 -15024890.513 10 0 60117 5400.00000 0 17135135.318 7400836.535 -17311583.960 10 0 60117 6300.00000 0 14864339.625 7484886.362 -19260024.300 10 0 60117 7200.00000 0 12390629.275 7766479.433 -20832027.653 10 0 60117 8100.00000 0 9778882.248 8263696.936 -21996794.704 10 0 60117 9000.00000 0 7097710.413 8982570.296 -22731528.290 10 0 60117 9900.00000 0 4416783.362 9916676.698 -23021888.444 10 0 60117 10800.00000 0 1804117.859 11047281.502 -22862275.302 10 0 60117 11700.00000 0 -676552.134 12344021.937 -22255934.257 10 0 60117 12600.00000 0 -2968213.589 13766102.860 -21214881.669 10 0 60117 13500.00000 0 -5022718.141 15263953.075 -19759653.459 10 0 60117 14400.00000 0 -6802541.910 16781270.883 -17918882.753 10 0 60117 15300.00000 0 -8282088.808 18257370.802 -15728716.435 10 0 60117 16200.00000 0 -9448484.766 19629730.737 -13232083.807 10 0 60117 17100.00000 0 -10301832.389 20836630.670 -10477833.607 10 0 60117 18000.00000 0 -10854918.791 21819770.485 -7519758.197 10 0 60117 18900.00000 0 -11132392.760 22526756.076 -4415525.854 10 0 60117 19800.00000 0 -11169449.777 22913349.169 -1225543.604 10 0 60117 20700.00000 0 -11010083.943 22945386.931 1988225.887 10 0 60117 21600.00000 0 -10704983.637 22600292.096 5163469.510 10 0 60117 22500.00000 0 -10309161.977 21868112.050 8238727.256 10 0 60117 23400.00000 0 -9879423.413 20752045.449 11154571.006 10 0 60117 24300.00000 0 -9471773.665 19268436.462 13854736.615 10 0 60117 25200.00000 0 -9138881.588 17446238.774 16287188.891 10 0 60117 26100.00000 0 -8927698.480 15325973.114 18405100.805 10 0 60117 27000.00000 0 -8877333.065 12958222.370 20167730.368 10 0 60117 27900.00000 0 -9017269.278 10401726.682 21541180.767 10 0 60117 28800.00000 0 -9365999.592 7721156.533 22499031.527 10 0 60117 29700.00000 0 -9930129.534 4984654.227 23022830.762 10 0 60117 30600.00000 0 -10703989.944 2261243.005 23102440.777 10 0 60117 31500.00000 0 -11669773.100 -381791.978 22736231.458 10 0 60117 32400.00000 0 -12798187.916 -2881445.599 21931118.118 10 0 60117 33300.00000 0 -14049608.580 -5181355.447 20702442.617 10 0 60117 34200.00000 0 -15375671.133 -7233889.884 19073698.865 10 0 60117 35100.00000 0 -16721254.220 -9001876.779 17076106.092 10 0 60117 36000.00000 0 -18026764.252 -10459902.168 14748035.728 10 0 60117 36900.00000 0 -19230632.207 -11595124.888 12134300.238 10 0 60117 37800.00000 0 -20271919.733 -12407572.597 9285314.898 10 0 60117 38700.00000 0 -21092926.684 -12909905.455 6256146.086 10 0 60117 39600.00000 0 -21641690.958 -13126655.632 3105462.400 10 0 60117 40500.00000 0 -21874274.822 -13092972.760 -105592.681 10 0 60117 41400.00000 0 -21756739.700 -12852926.447 -3314585.561 10 0 60117 42300.00000 0 -21266723.585 -12457436.290 -6459011.748 10 0 60117 43200.00000 0 -20394551.296 -11961916.274 -9477525.119 10 0 60117 44100.00000 0 -19143827.213 -11423733.527 -12311151.985 10 0 60117 45000.00000 0 -17531481.977 -10899590.071 -14904464.338 10 0 60117 45900.00000 0 -15587268.071 -10442940.349 -17206687.231 10 0 60117 46800.00000 0 -13352723.029 -10101556.281 -19172716.332 10 0 60117 47700.00000 0 -10879642.250 -9915345.721 -20764023.459 10 0 60117 48600.00000 0 -8228124.827 -9914519.379 -21949430.386 10 0 60117 49500.00000 0 -5464274.483 -10118186.280 -22705734.105 10 0 60117 50400.00000 0 -2657652.804 -10533439.147 -23018170.138 10 0 60117 51300.00000 0 121407.303 -11154969.655 -22880704.117 10 0 60117 52200.00000 0 2804514.097 -11965230.360 -22296145.821 10 0 60117 53100.00000 0 5327840.603 -12935136.156 -21276083.747 10 0 60117 54000.00000 0 7634548.711 -14025274.665 -19840642.383 10 0 60117 54900.00000 0 9676912.122 -15187572.882 -18018068.109 10 0 60117 55800.00000 0 11418049.838 -16367347.759 -15844153.430 10 0 60117 56700.00000 0 12833199.048 -17505652.088 -13361512.583 10 0 60117 57600.00000 0 13910476.408 -18541814.686 -10618724.614 10 0 60117 58500.00000 0 14651098.781 -19416066.026 -7669362.652 10 0 60117 59400.00000 0 15069057.820 -20072137.401 -4570930.211 10 0 60117 60300.00000 0 15190265.901 -20459723.512 -1383726.895 10 0 60117 61200.00000 0 15051213.176 -20536704.920 1830332.999 10 0 60117 62100.00000 0 14697195.750 -20271037.647 5008925.149 10 0 60117 63000.00000 0 14180192.424 -19642231.886 8090519.385 10 0 60117 63900.00000 0 13556481.410 -18642359.546 11015560.226 10 0 60117 64800.00000 0 12884098.373 -17276550.338 13727601.780 10 0 60117 65700.00000 0 12220242.751 -15562957.466 16174376.505 10 0 60117 66600.00000 0 11618740.502 -13532195.813 18308779.086 10 0 60117 67500.00000 0 11127668.212 -11226276.892 20089748.744 10 0 60117 68400.00000 0 10787236.126 -8697084.902 21483035.471 10 0 60117 69300.00000 0 10628016.586 -6004456.402 22461837.828 10 0 60117 70200.00000 0 10669589.959 -3213941.557 23007302.265 10 0 60117 71100.00000 0 10919663.129 -394337.266 23108876.111 10 0 60117 72000.00000 0 11373696.534 2384908.647 22764508.570 10 0 60117 72900.00000 0 12015055.374 5056318.045 21980696.254 10 0 60117 73800.00000 0 12815679.625 7556922.657 20772372.002 10 0 60117 74700.00000 0 13737246.637 9830621.482 19162637.937 10 0 60117 75600.00000 0 14732780.149 11830260.016 17182346.080 10 0 60117 76500.00000 0 15748641.161 13519346.453 14869532.192 10 0 60117 77400.00000 0 16726820.084 14873334.057 12268711.114 10 0 60117 78300.00000 0 17607436.483 15880415.943 9430044.433 10 0 60117 79200.00000 0 18331343.273 16541798.003 6408393.952 10 0 60117 80100.00000 0 18842726.732 16871436.868 3262277.138 10 0 60117 81000.00000 0 19091592.731 16895251.965 52743.159 10 0 60117 81900.00000 0 19036033.157 16649842.880 -3157809.573 10 0 60117 82800.00000 0 18644174.669 16180764.453 -6306851.449 10 0 60117 83700.00000 0 17895724.560 15540431.355 -9332950.985 10 0 60117 84600.00000 0 16783044.908 14785740.389 -12176990.186 10 0 60117 85500.00000 0 15311706.025 13975511.581 -14783340.353 10 0 60118 0.00000 0 13500492.511 13167857.716 -17100973.067 10 0 60118 900.00000 0 11380857.581 12417595.148 -19084483.485 10 0 60118 1800.00000 0 8995848.833 11773808.932 -20695000.630 10 0 60118 2700.00000 0 6398545.953 11277676.344 -21900968.961 10 0 60118 3600.00000 0 3650077.726 10960644.371 -22678781.095 10 0 60118 4500.00000 0 817300.886 10843039.742 -23013249.335 10 0 60118 5400.00000 0 -2029760.931 10933171.717 -22897905.882 10 0 60118 6300.00000 0 -4820609.672 11226966.157 -22335125.666 10 0 60118 7200.00000 0 -7486982.787 11708146.141 -21336069.729 10 0 60118 8100.00000 0 -9965466.073 12348950.518 -19920451.106 10 0 60118 9000.00000 0 -12199899.563 13111358.440 -18116128.970 10 0 60118 9900.00000 0 -14143475.741 13948766.021 -15958540.550 10 0 60118 10800.00000 0 -15760443.141 14808041.946 -13489983.733 10 0 60118 11700.00000 0 -17027345.680 15631872.812 -10758766.255 10 0 60118 12600.00000 0 -17933748.243 16361297.001 -7818240.126 10 0 60118 13500.00000 0 -18482421.291 16938318.338 -4725741.992 10 0 60118 14400.00000 0 -18688980.330 17308488.128 -1541461.762 10 0 60118 15300.00000 0 -18580999.184 17423346.189 1672737.062 10 0 60118 16200.00000 0 -18196637.968 17242618.300 4854521.497 10 0 60118 17100.00000 0 -17582846.652 16736078.485 7942293.883 10 0 60118 18000.00000 0 -16793222.206 15884999.237 10876374.139 10 0 60118 18900.00000 0 -15885611.014 14683130.566 13600137.452 10 0 60118 19800.00000 0 -14919557.823 13137168.548 16061086.775 10 0 60118 20700.00000 0 -13953707.952 11266695.315 18211841.308 10 0 60118 21600.00000 0 -13043270.387 9103593.992 20011024.190 10 0 60118 22500.00000 0 -12237646.130 6690963.222 21424034.747 10 0 60118 23400.00000 0 -11578318.747 4081575.920 22423692.875 10 0 60118 24300.00000 0 -11097092.924 1335944.807 22990745.373 10 0 60118 25200.00000 0 -10814752.544 -1479927.300 23114226.267 10 0 60118 26100.00000 0 -10740192.771 -4297022.087 22791665.354 10 0 60118 27000.00000 0 -10870061.617 -7045906.057 22029141.407 10 0 60118 27900.00000 0 -11188926.063 -9659352.272 20841178.637 10 0 60118 28800.00000 0 -11669956.806 -12074878.090 19250487.298 10 0 60118 29700.00000 0 -12276104.776 -14237096.320 17287551.618 10 0 60118 30600.00000 0 -12961722.521 -16099784.161 14990070.619 10 0 60118 31500.00000 0 -13674565.078 -17627584.845 12402259.973 10 0 60118 32400.00000 0 -14358088.856 -18797271.192 9574025.602 10 0 60118 33300.00000 0 -14953953.983 -19598517.511 6560022.365 10 0 60118 34200.00000 0 -15404626.101 -20034145.989 3418613.884 10 0 60118 35100.00000 0 -15655968.356 -20119835.257 210752.000 10 0 60118 36000.00000 0 -15659713.533 -19883301.222 -3001203.330 10 0 60118 36900.00000 0 -15375710.230 -19362982.646 -6154700.875 10 0 60118 37800.00000 0 -14773845.523 -18606285.339 -9188227.450 10 0 60118 38700.00000 0 -13835559.597 -17667458.165 -12042524.517 10 0 60118 39600.00000 0 -12554884.634 -16605190.528 -14661766.470 10 0 60118 40500.00000 0 -10938960.413 -15480033.571 -16994675.473 10 0 60118 41400.00000 0 -9008001.424 -14351755.567 -18995548.782 10 0 60118 42300.00000 0 -6794714.045 -13276745.278 -20625176.132 10 0 60118 43200.00000 0 -4343186.245 -12305575.307 -21851627.238 10 0 60118 44100.00000 0 -1707295.262 -11480830.656 -22650892.297 10 0 60118 45000.00000 0 1051300.206 -10835296.216 -23007361.700 10 0 60118 45900.00000 0 3865498.734 -10390581.157 -22914134.839 10 0 60118 46800.00000 0 6665326.859 -10156239.048 -22373151.774 10 0 60118 47700.00000 0 9380632.867 -10129420.773 -21395145.464 10 0 60118 48600.00000 0 11943789.684 -10295073.980 -19999416.323 10 0 60118 49500.00000 0 14292292.799 -10626679.031 -18213434.643 10 0 60118 50400.00000 0 16371144.004 -11087488.103 -16072280.253 10 0 60118 51300.00000 0 18134921.440 -11632212.509 -13617932.121 10 0 60118 52200.00000 0 19549450.271 -12209084.199 -10898423.709 10 0 60118 53100.00000 0 20593005.853 -12762201.709 -7966882.583 10 0 60118 54000.00000 0 21257001.590 -13234059.139 -4880474.912 10 0 60118 54900.00000 0 21546135.781 -13568149.653 -1699277.110 10 0 60118 55800.00000 0 21477994.889 -13711532.485 1514901.973 10 0 60118 56700.00000 0 21082133.442 -13617254.890 4699724.481 10 0 60118 57600.00000 0 20398672.593 -13246527.357 7793528.835 10 0 60118 58500.00000 0 19476478.985 -12570561.553 10736513.606 10 0 60118 59400.00000 0 18371002.388 -11571995.209 13471877.889 10 0 60118 60300.00000 0 17141863.920 -10245845.767 15946897.481 10 0 60118 61200.00000 0 15850296.022 -8599954.411 18113917.952 10 0 60118 62100.00000 0 14556540.551 -6654903.074 19931247.700 10 0 60118 63000.00000 0 13317312.106 -4443408.442 21363936.256 10 0 60118 63900.00000 0 12183430.421 -2009217.991 22384425.274 10 0 60118 64800.00000 0 11197718.101 594447.145 22973061.906 10 0 60118 65700.00000 0 10393248.989 3306839.778 23118466.505 10 0 60118 66600.00000 0 9792018.082 6061946.625 22817748.765 10 0 60118 67500.00000 0 9404086.999 8790970.150 22076568.611 10 0 60118 68400.00000 0 9227239.951 11424932.920 20909040.375 10 0 60118 69300.00000 0 9247164.789 13897299.850 19337480.975 10 0 60118 70200.00000 0 9438152.607 16146512.555 17392005.204 10 0 60118 71100.00000 0 9764288.373 18118332.917 15109973.550 10 0 60118 72000.00000 0 10181084.925 19767899.781 12535300.594 10 0 60118 72900.00000 0 10637494.074 21061413.586 9717634.540 10 0 60118 73800.00000 0 11078212.431 21977378.130 6711421.133 10 0 60118 74700.00000 0 11446186.506 22507346.121 3574867.865 10 0 60118 75600.00000 0 11685212.255 22656135.352 368826.877 10 0 60118 76500.00000 0 11742519.223 22441504.069 -2844382.749 10 0 60118 77400.00000 0 11571228.884 21893296.881 -6002190.572 10 0 60118 78300.00000 0 11132581.112 21052095.140 -9043004.058 10 0 60118 79200.00000 0 10397831.643 19967427.234 -11907426.361 10 0 60118 80100.00000 0 9349736.804 18695613.575 -14539437.040 10 0 60118 81000.00000 0 7983559.002 17297337.372 -16887510.558 10 0 60118 81900.00000 0 6307546.873 15835044.602 -18905648.414 10 0 60118 82800.00000 0 4342866.607 14370284.543 -20554302.393 10 0 60118 83700.00000 0 2122984.741 12961105.044 -21801168.867 10 0 60118 84600.00000 0 -307473.356 11659614.568 -22621836.846 10 0 60118 85500.00000 0 -2894342.239 10509815.831 -23000275.841 99